#timestamp,LO_Frequency,Hit,StdDev 
1681394415.6,286046998.6,N
1681394435.4,286047000.7,N
1681394455.2,286047002.6,N
1681394475.1,286047000.5,N
1681394476.0,286047000.5,N
1681394495.8,286047000.5,N
1681394515.7,286047000.2,N
1681394535.5,286046999.9,N
1681394555.3,286047000.0,N
1681394575.2,286047000.8,N
1681394595.9,286047001.0,N
1681394615.7,286047000.6,N
1681394635.6,286047001.0,N
1681394655.4,286047000.3,N
1681394675.3,286047000.3,N
1681394695.1,286047000.4,N
1681394696.0,286047000.4,N
1681394715.8,286047000.6,N
1681394735.7,286047001.0,N
1681394755.5,286047001.2,N
1681394775.3,286046998.9,N
1681394795.2,286046999.3,N
1681394815.0,286046996.9,Y
1681394815.9,286046996.9,P
1681394835.8,286046999.4,N
1681394855.6,286046999.1,N
1681394875.4,286046998.5,N
1681394895.3,286046998.1,N
1681394915.1,286046998.4,N
1681394935.9,286046998.1,N
1681394955.7,286046998.6,N
1681394975.5,286046998.1,N
1681394995.4,286047000.6,N
1681395015.2,286047000.5,N
1681395035.1,286047000.3,N
1681395036.0,286047000.3,N
1681395055.8,286047000.9,N
1681395075.6,286047000.8,N
1681395095.5,286046999.0,N
1681395115.3,286046997.0,N
1681395135.2,286046999.1,N
1681395155.9,286046996.7,N
1681395175.7,286046998.9,N
1681395195.6,286047001.2,N
1681395215.4,286047001.1,N
1681395235.3,286047000.6,N
1681395255.1,286047000.4,N
1681395256.0,286047000.4,N
1681395275.8,286047000.5,N
1681395295.7,286047000.9,N
1681395315.5,286047001.2,N
1681395335.4,286047000.5,N
1681395355.2,286047002.7,N
1681395375.0,286046999.8,N
1681395375.9,286046999.8,N
1681395395.8,286047001.0,N
1681395415.6,286047000.2,N
1681395435.5,286047000.4,N
1681395455.3,286047000.0,N
1681395475.1,286047000.0,N
1681395495.9,286047000.3,N
1681395515.7,286047002.8,N
1681395535.5,286047000.9,N
1681395555.4,286047000.4,N
1681395605.3,286047000.0,E
1681395615.2,286047000.1,N
1681395635.0,286047001.0,P
1681395635.9,286047001.0,N
1681395655.8,286047000.4,N
1681395675.6,286046998.1,Y
1681395695.4,286046998.3,P
1681395715.3,286046998.8,N
1681395735.1,286046998.2,N
1681395755.8,286046998.4,N
1681395775.7,286046998.6,N
1681395795.5,286046998.6,N
1681395815.4,286047000.1,N
1681395835.2,286047000.6,N
1681395855.0,286047000.6,N
1681395855.9,286047000.6,N
1681395875.8,286047000.3,N
1681395895.6,286047002.7,N
1681395915.4,286047000.1,N
1681395935.3,286047000.2,N
1681395955.1,286047002.4,N
1681395975.9,286047002.4,N
1681395995.7,286047002.1,N
1681396015.5,286046999.8,N
1681396035.4,286047000.3,N
1681396055.2,286047000.3,N
1681396075.0,286047000.4,N
1681396075.9,286047000.4,N
1681396095.8,286047002.8,N
1681396115.6,286046999.9,N
1681396135.5,286047000.2,N
1681396155.3,286046999.9,N
1681396175.1,286047002.3,N
1681396195.9,286047000.3,N
1681396215.7,286047001.1,N
1681396235.6,286047001.2,N
1681396255.4,286047000.3,N
1681396275.2,286047000.5,N
1681396295.1,286047002.6,N
1681396296.0,286047002.6,N
1681396315.8,286047001.9,N
1681396335.6,286047002.0,N
1681396355.5,286046999.9,N
1681396375.3,286047000.2,N
1681396395.2,286047002.6,N
1681396415.9,286047002.6,N
1681396435.7,286046999.9,N
1681396455.6,286047000.1,N
1681396475.4,286047000.0,N
1681396495.3,286047000.4,N
1681396515.1,286047000.9,N
1681396516.0,286047000.9,N
1681396535.8,286047000.9,N
1681396555.7,286047000.9,N
1681396575.5,286047000.6,N
1681396595.3,286047000.9,N
1681396615.2,286047000.6,N
1681396635.0,286047000.8,N
1681396635.9,286047000.8,N
1681396655.8,286047001.0,N
1681396675.6,286046998.2,N
1681396695.4,286047000.6,N
1681396715.3,286047000.5,N
1681396735.1,286047001.0,N
1681396755.9,286047000.5,N
1681396775.7,286047000.5,N
1681396795.5,286047000.6,N
1681396815.4,286047000.6,N
1681396835.2,286047000.8,N
1681396855.0,286047000.6,N
1681396855.9,286047000.6,N
1681396875.8,286047000.2,N
1681396895.6,286047000.2,N
1681396915.5,286047000.3,N
1681396935.3,286047000.3,N
1681396955.1,286047000.6,N
1681396975.9,286047000.5,N
1681396995.7,286047000.7,N
1681397015.5,286047000.0,N
1681397035.4,286046999.7,N
1681397055.2,286047002.7,Y
1681397075.1,286047004.3,P
1681397076.0,286047004.3,N
1681397095.8,286047001.4,N
1681397115.6,286047001.7,N
1681397135.5,286047000.3,N
1681397155.3,286047000.0,N
1681397175.2,286047001.1,N
1681397195.9,286047001.2,N
1681397215.7,286046998.5,N
1681397235.6,286047000.4,N
1681397255.4,286046999.9,N
1681397275.3,286046999.7,N
1681397295.1,286047002.8,N
1681397296.0,286047002.8,N
1681397315.8,286047002.2,N
1681397335.7,286047002.0,N
1681397355.5,286047002.6,N
1681397375.3,286047000.0,N
1681397395.2,286047000.2,N
1681397415.0,286047000.0,N
1681397415.9,286047000.0,N
1681397435.8,286047000.7,N
1681397455.6,286046998.6,N
1681397475.4,286046999.0,N
1681397495.3,286046998.4,N
1681397515.1,286046997.0,N
1681397535.8,286046998.6,N
1681397555.7,286046998.7,N
1681397575.5,286046998.4,N
1681397595.4,286046996.9,N
1681397615.2,286046997.0,N
1681397635.0,286046997.1,N
1681397635.9,286046997.1,N
1681397655.8,286046997.6,N
1681397675.6,286046995.7,N
1681397695.4,286046996.0,N
1681397715.3,286046995.8,N
1681397735.1,286046995.0,N
1681397755.9,286046996.1,N
1681397775.7,286046995.1,N
1681397795.5,286046995.4,N
1681397815.4,286046994.9,N
1681397835.2,286046995.2,N
1681397855.0,286046993.5,N
1681397855.9,286046993.5,N
1681397875.8,286046995.8,N
1681397895.6,286046996.2,N
1681397915.5,286046993.8,Y
1681397935.3,286046997.6,P
1681397955.1,286046996.8,P
1681397975.9,286046997.8,P
1681397995.7,286046999.6,N
